Location: Nairn
(57.5833°N, 3.8667°W)
Time: 22:30:54
(UTC+00:00)

Altair - Pass Details

Date: 11 October 2022
Orbit: 1501 x 1682 km, 47.2° (Epoch: 05 December)

Event Time Altitude Azimuth Distance (km) Brightness Sun altitude
Exits shadow 05:19:53 10° 242° (WSW) 3,790 9.0 -11.6°
Maximum altitude 05:28:53 46° 173° (S) 2,094 8.2 -10.4°
Drops below altitude 10° 05:38:14 10° 105° (ESE) 3,925 11.1 -9.1°
Sets 05:41:35 0° 100° (E) 4,925 12.2 -8.7°
